Location: Ar Ranvel
(48.3000°N, 4.8833°W)
Time: 21:46:03
(UTC+00:00)

Meteor 2-10 Rocket - Pass Details

Date: 26 October 2021
Orbit: 733 x 885 km, 81.2° (Epoch: 30 November)

Event Time Altitude Azimuth Distance (km) Brightness Sun altitude
Rises 20:03:57 0° 228° (SW) 3,371 7.3 -29.4°
Reaches altitude 10° 20:06:53 10° 243° (WSW) 2,415 6.6 -29.8°
Maximum altitude 20:11:11 23° 295° (WNW) 1,636 5.8 -30.5°
Drops below altitude 10° 20:15:23 10° 348° (NNW) 2,346 6.3 -31.2°
Sets 20:18:11 0° 3° (N) 3,253 6.9 -31.6°
